UAL878 KMCO-TNCM

Flight info

Callsign UAL878
Flight time 2h 16m
Altitude 37000
Route DDANY3 JIPOD DCT VENDS Y185 COUKY DCT FIPEK Y355 SLUGO
Aircraft B77W/H-SDE1E2E3FGHIJ2J3J4J5M1RWXY/LB1D1

Departure

Time 2026-04-22 21:39
Airport Orlando International Airport (KMCO)

Arrival

Time 2026-04-22 23:55
Airport Princess Juliana International Airport (TNCM)
Time Latitude Longitude Altitude Speed Heading
2026-04-22 21:20 28.43407 -81.30125 94 ft 0 kts 62°
2026-04-22 21:29 28.43403 -81.30133 94 ft 2 kts 62°
2026-04-22 21:29 28.43395 -81.30148 94 ft 2 kts 51°
2026-04-22 21:29 28.43384 -81.30159 94 ft 2 kts 26°
2026-04-22 21:30 28.43370 -81.30165 94 ft 2 kts
2026-04-22 21:30 28.43356 -81.30162 94 ft 2 kts 321°
2026-04-22 21:30 28.43348 -81.30148 94 ft 2 kts 284°
2026-04-22 21:30 28.43344 -81.30132 94 ft 2 kts 284°
2026-04-22 21:31 28.43340 -81.30116 95 ft 2 kts 303°
2026-04-22 21:31 28.43330 -81.30105 95 ft 2 kts 335°
2026-04-22 21:31 28.43315 -81.30101 95 ft 2 kts
2026-04-22 21:31 28.43302 -81.30106 94 ft 2 kts 53°
2026-04-22 21:32 28.43298 -81.30122 94 ft 2 kts 103°
2026-04-22 21:32 28.43301 -81.30130 94 ft 1 kts 124°
2026-04-22 21:32 28.43303 -81.30133 94 ft 0 kts 123°
2026-04-22 21:34 28.43298 -81.30125 94 ft 3 kts 123°
2026-04-22 21:34 28.43286 -81.30093 94 ft 5 kts 107°
2026-04-22 21:35 28.43282 -81.30048 95 ft 5 kts 91°
2026-04-22 21:35 28.43285 -81.30023 96 ft 2 kts 70°
2026-04-22 21:35 28.43293 -81.29991 96 ft 6 kts 79°
2026-04-22 21:35 28.43310 -81.29931 97 ft 8 kts 71°
2026-04-22 21:36 28.43329 -81.29871 97 ft 7 kts 71°
2026-04-22 21:36 28.43353 -81.29821 97 ft 7 kts 34°
2026-04-22 21:36 28.43413 -81.29806 97 ft 10 kts
2026-04-22 21:36 28.43485 -81.29805 97 ft 9 kts
2026-04-22 21:37 28.43534 -81.29781 97 ft 5 kts 59°
2026-04-22 21:37 28.43546 -81.29736 97 ft 5 kts 81°
2026-04-22 21:37 28.43551 -81.29691 97 ft 6 kts 87°
2026-04-22 21:37 28.43550 -81.29623 97 ft 7 kts 102°
2026-04-22 21:38 28.43509 -81.29593 97 ft 10 kts 165°
2026-04-22 21:38 28.43356 -81.29584 97 ft 51 kts 180°
2026-04-22 21:38 28.42717 -81.29575 95 ft 128 kts 179°
2026-04-22 21:38 28.41633 -81.29574 245 ft 174 kts 175°
2026-04-22 21:39 28.40401 -81.29531 958 ft 184 kts 173°
2026-04-22 21:39 28.39189 -81.29475 1948 ft 175 kts 168°
2026-04-22 21:39 28.37983 -81.29037 2408 ft 189 kts 146°
2026-04-22 21:39 28.36833 -81.28208 2971 ft 205 kts 144°
2026-04-22 21:40 28.35639 -81.27200 3569 ft 221 kts 131°
2026-04-22 21:40 28.34789 -81.25712 4144 ft 236 kts 110°
2026-04-22 21:40 28.34379 -81.23846 4757 ft 253 kts 101°
2026-04-22 21:40 28.34019 -81.21838 5551 ft 264 kts 103°
2026-04-22 21:41 28.33565 -81.19848 6495 ft 267 kts 104°
2026-04-22 21:41 28.33084 -81.17791 7389 ft 273 kts 105°
2026-04-22 21:41 28.32605 -81.15743 8297 ft 276 kts 105°
2026-04-22 21:41 28.32106 -81.13615 9175 ft 281 kts 105°
2026-04-22 21:42 28.31606 -81.11481 9988 ft 287 kts 105°
2026-04-22 21:42 28.31078 -81.09238 10578 ft 302 kts 105°
2026-04-22 21:42 28.30520 -81.06863 11087 ft 321 kts 105°
2026-04-22 21:42 28.29932 -81.04363 11614 ft 339 kts 105°
2026-04-22 21:43 28.29310 -81.01723 12220 ft 356 kts 105°
2026-04-22 21:43 28.28646 -80.98904 12882 ft 373 kts 105°
2026-04-22 21:43 28.27972 -80.96044 13651 ft 385 kts 105°
2026-04-22 21:43 28.27272 -80.93076 14483 ft 394 kts 105°
2026-04-22 21:44 28.26557 -80.90052 15365 ft 403 kts 105°
2026-04-22 21:44 28.25824 -80.86951 16240 ft 412 kts 105°
2026-04-22 21:44 28.25078 -80.83804 17089 ft 421 kts 105°
2026-04-22 21:44 28.24311 -80.80569 17910 ft 429 kts 105°
2026-04-22 21:45 28.23538 -80.77309 18807 ft 435 kts 105°
2026-04-22 21:45 28.22749 -80.73988 19725 ft 441 kts 105°
2026-04-22 21:45 28.21942 -80.70595 20602 ft 447 kts 105°
2026-04-22 21:45 28.21106 -80.67211 21438 ft 453 kts 108°
2026-04-22 21:46 28.20034 -80.63826 22270 ft 459 kts 110°
2026-04-22 21:46 28.18899 -80.60395 23081 ft 465 kts 111°
2026-04-22 21:46 28.17760 -80.56962 23853 ft 472 kts 111°
2026-04-22 21:46 28.16595 -80.53449 24599 ft 478 kts 111°
2026-04-22 21:47 28.15419 -80.49904 25298 ft 485 kts 111°
2026-04-22 21:47 28.14231 -80.46323 25972 ft 493 kts 111°
2026-04-22 21:47 28.13024 -80.42691 26683 ft 498 kts 112°
2026-04-22 21:47 28.11806 -80.39026 27383 ft 504 kts 112°
2026-04-22 21:48 28.10571 -80.35312 28056 ft 510 kts 112°
2026-04-22 21:48 28.09298 -80.31488 28658 ft 518 kts 113°
2026-04-22 21:48 28.08019 -80.27660 29261 ft 524 kts 113°
2026-04-22 21:48 28.06730 -80.23811 29862 ft 530 kts 113°
2026-04-22 21:49 28.05407 -80.19865 30429 ft 536 kts 113°
2026-04-22 21:49 28.04082 -80.15913 30973 ft 542 kts 113°
2026-04-22 21:49 28.02729 -80.11885 31533 ft 546 kts 113°
2026-04-22 21:49 28.01376 -80.07858 32231 ft 547 kts 113°
2026-04-22 21:50 28.00038 -80.03879 32977 ft 545 kts 113°
2026-04-22 21:50 27.98700 -79.99903 33685 ft 544 kts 114°
2026-04-22 21:50 27.97352 -79.95905 34333 ft 545 kts 114°
2026-04-22 21:50 27.96007 -79.91921 34971 ft 545 kts 113°
2026-04-22 21:51 27.94664 -79.87948 35604 ft 545 kts 113°
2026-04-22 21:51 27.93301 -79.83918 36230 ft 544 kts 113°
2026-04-22 21:51 27.91954 -79.79940 36798 ft 544 kts 113°
2026-04-22 21:52 27.89231 -79.71917 37179 ft 555 kts 113°
2026-04-22 21:52 27.86428 -79.63677 37180 ft 570 kts 113°
2026-04-22 21:53 27.83559 -79.55255 37180 ft 573 kts 113°
2026-04-22 21:53 27.80697 -79.46873 37186 ft 575 kts 113°
2026-04-22 21:54 27.77828 -79.38493 37184 ft 574 kts 113°
2026-04-22 21:54 27.74939 -79.30070 37170 ft 574 kts 113°
2026-04-22 21:55 27.72043 -79.21651 37174 ft 575 kts 114°
2026-04-22 21:55 27.69163 -79.13294 37172 ft 575 kts 114°
2026-04-22 21:56 27.66250 -79.04863 37178 ft 574 kts 113°
2026-04-22 21:56 27.63348 -78.96484 37176 ft 576 kts 114°
2026-04-22 21:57 27.60441 -78.88106 37181 ft 575 kts 114°
2026-04-22 21:57 27.57510 -78.79681 37186 ft 577 kts 114°
2026-04-22 21:58 27.54594 -78.71317 37186 ft 577 kts 114°
2026-04-22 21:58 27.51648 -78.62886 37190 ft 576 kts 114°
2026-04-22 21:59 27.48712 -78.54503 37194 ft 577 kts 114°
2026-04-22 21:59 27.45757 -78.46084 37190 ft 576 kts 114°
2026-04-22 22:00 27.42824 -78.37746 37195 ft 578 kts 114°
2026-04-22 22:00 27.39872 -78.29372 37176 ft 578 kts 114°
2026-04-22 22:01 27.36902 -78.20966 37177 ft 577 kts 114°
2026-04-22 22:01 27.33721 -78.12707 37177 ft 574 kts 123°
2026-04-22 22:02 27.29433 -78.05116 37178 ft 572 kts 127°
2026-04-22 22:02 27.25058 -77.97683 37177 ft 571 kts 127°
2026-04-22 22:03 27.20675 -77.90263 37180 ft 572 kts 127°
2026-04-22 22:03 27.16270 -77.82822 37183 ft 572 kts 128°
2026-04-22 22:04 27.11888 -77.75438 37181 ft 572 kts 128°
2026-04-22 22:04 27.07448 -77.67969 37185 ft 574 kts 128°
2026-04-22 22:05 27.03049 -77.60582 37177 ft 574 kts 127°
2026-04-22 22:05 26.98627 -77.53112 37179 ft 575 kts 127°
2026-04-22 22:06 26.94249 -77.45583 37181 ft 575 kts 127°
2026-04-22 22:06 26.89886 -77.38097 37183 ft 575 kts 127°
2026-04-22 22:07 26.85528 -77.30634 37162 ft 573 kts 127°
2026-04-22 22:07 26.81145 -77.23148 37157 ft 575 kts 127°
2026-04-22 22:08 26.76757 -77.15665 37159 ft 576 kts 127°
2026-04-22 22:08 26.72389 -77.08230 37165 ft 576 kts 127°
2026-04-22 22:09 26.67977 -77.00732 37169 ft 575 kts 127°
2026-04-22 22:09 26.63596 -76.93299 37164 ft 575 kts 127°
2026-04-22 22:10 26.59188 -76.85834 37169 ft 577 kts 127°
2026-04-22 22:10 26.54785 -76.78391 37167 ft 577 kts 127°
2026-04-22 22:11 26.50341 -76.70888 37168 ft 577 kts 127°
2026-04-22 22:11 26.45913 -76.63428 37172 ft 577 kts 127°
2026-04-22 22:12 26.41488 -76.55983 37168 ft 576 kts 127°
2026-04-22 22:12 26.37082 -76.48583 37168 ft 578 kts 127°
2026-04-22 22:13 26.32629 -76.41115 37172 ft 576 kts 127°
2026-04-22 22:13 26.28181 -76.33669 37162 ft 578 kts 127°
2026-04-22 22:14 26.23758 -76.26276 37148 ft 578 kts 128°
2026-04-22 22:14 26.19284 -76.18811 37152 ft 579 kts 127°
2026-04-22 22:15 26.14820 -76.11373 37150 ft 578 kts 127°
2026-04-22 22:15 26.10380 -76.03989 37157 ft 579 kts 127°
2026-04-22 22:16 26.05903 -75.96554 37155 ft 579 kts 127°
2026-04-22 22:16 26.01416 -75.89115 37154 ft 578 kts 127°
2026-04-22 22:17 25.96951 -75.81723 37154 ft 578 kts 127°
2026-04-22 22:17 25.92458 -75.74298 37158 ft 579 kts 127°
2026-04-22 22:18 25.87940 -75.66843 37155 ft 580 kts 127°
2026-04-22 22:18 25.83462 -75.59466 37158 ft 579 kts 127°
2026-04-22 22:19 25.78954 -75.52052 37156 ft 580 kts 127°
2026-04-22 22:19 25.74468 -75.44685 37157 ft 579 kts 127°
2026-04-22 22:20 25.69948 -75.37276 37156 ft 579 kts 127°
2026-04-22 22:20 25.65438 -75.29892 37139 ft 580 kts 128°
2026-04-22 22:21 25.60916 -75.22502 37141 ft 581 kts 128°
2026-04-22 22:21 25.56382 -75.15104 37148 ft 581 kts 128°
2026-04-22 22:22 25.51868 -75.07750 37150 ft 581 kts 128°
2026-04-22 22:22 25.47331 -75.00369 37151 ft 578 kts 128°
2026-04-22 22:23 25.42801 -74.93013 37149 ft 581 kts 128°
2026-04-22 22:23 25.38281 -74.85683 37152 ft 579 kts 128°
2026-04-22 22:24 25.33742 -74.78335 37153 ft 580 kts 128°
2026-04-22 22:24 25.29198 -74.70988 37155 ft 580 kts 128°
2026-04-22 22:25 25.24660 -74.63665 37161 ft 578 kts 128°
2026-04-22 22:25 25.20101 -74.56317 37163 ft 580 kts 128°
2026-04-22 22:26 25.15539 -74.48978 37166 ft 579 kts 128°
2026-04-22 22:26 25.10992 -74.41672 37162 ft 580 kts 128°
2026-04-22 22:27 25.06430 -74.34354 37165 ft 579 kts 128°
2026-04-22 22:27 25.01860 -74.27033 37149 ft 580 kts 129°
2026-04-22 22:28 24.97312 -74.19762 37146 ft 579 kts 128°
2026-04-22 22:28 24.92756 -74.12485 37148 ft 580 kts 128°
2026-04-22 22:29 24.88177 -74.05186 37145 ft 580 kts 128°
2026-04-22 22:29 24.83578 -73.97864 37147 ft 580 kts 129°
2026-04-22 22:30 24.79007 -73.90597 37141 ft 580 kts 129°
2026-04-22 22:30 24.74387 -73.83265 37141 ft 581 kts 129°
2026-04-22 22:31 24.69807 -73.76006 37140 ft 578 kts 129°
2026-04-22 22:31 24.65208 -73.68731 37143 ft 580 kts 128°
2026-04-22 22:32 24.60641 -73.61514 37138 ft 580 kts 128°
2026-04-22 22:32 24.56010 -73.54211 37136 ft 580 kts 129°
2026-04-22 22:33 24.51289 -73.47110 37136 ft 579 kts 130°
2026-04-22 22:33 24.46532 -73.40009 37138 ft 578 kts 130°
2026-04-22 22:34 24.41771 -73.32903 37115 ft 578 kts 130°
2026-04-22 22:34 24.37010 -73.25803 37113 ft 578 kts 130°
2026-04-22 22:35 24.32257 -73.18720 37114 ft 577 kts 130°
2026-04-22 22:35 24.27495 -73.11631 37114 ft 579 kts 130°
2026-04-22 22:36 24.22735 -73.04552 37112 ft 578 kts 130°
2026-04-22 22:36 24.17967 -72.97473 37115 ft 578 kts 130°
2026-04-22 22:37 24.13182 -72.90379 37115 ft 579 kts 130°
2026-04-22 22:37 24.08404 -72.83304 37118 ft 579 kts 130°
2026-04-22 22:38 24.03626 -72.76239 37113 ft 578 kts 130°
2026-04-22 22:38 23.98853 -72.69191 37114 ft 578 kts 130°
2026-04-22 22:39 23.94055 -72.62118 37118 ft 578 kts 130°
2026-04-22 22:39 23.89273 -72.55076 37117 ft 577 kts 130°
2026-04-22 22:40 23.84498 -72.48055 37113 ft 577 kts 130°
2026-04-22 22:40 23.79682 -72.40985 37117 ft 578 kts 130°
2026-04-22 22:41 23.74914 -72.33993 37104 ft 575 kts 131°
2026-04-22 22:41 23.70145 -72.27010 37091 ft 577 kts 131°
2026-04-22 22:42 23.65356 -72.20009 37093 ft 577 kts 131°
2026-04-22 22:42 23.60561 -72.13008 37093 ft 576 kts 130°
2026-04-22 22:43 23.55778 -72.06034 37090 ft 576 kts 131°
2026-04-22 22:43 23.51003 -71.99081 37091 ft 575 kts 131°
2026-04-22 22:44 23.46207 -71.92106 37088 ft 573 kts 131°
2026-04-22 22:44 23.41429 -71.85169 37083 ft 574 kts 131°
2026-04-22 22:45 23.36625 -71.78204 37088 ft 576 kts 131°
2026-04-22 22:45 23.32011 -71.71133 37087 ft 577 kts 128°
2026-04-22 22:46 23.27462 -71.63943 37086 ft 578 kts 128°
2026-04-22 22:46 23.22883 -71.56731 37089 ft 577 kts 128°
2026-04-22 22:47 23.18334 -71.49593 37088 ft 577 kts 128°
2026-04-22 22:47 23.13739 -71.42400 37090 ft 577 kts 128°
2026-04-22 22:48 23.09160 -71.35247 37085 ft 577 kts 128°
2026-04-22 22:48 23.04595 -71.28127 37066 ft 578 kts 129°
2026-04-22 22:49 23.00006 -71.20982 37066 ft 577 kts 129°
2026-04-22 22:49 22.95428 -71.13863 37067 ft 576 kts 129°
2026-04-22 22:50 22.90836 -71.06735 37066 ft 577 kts 129°
2026-04-22 22:50 22.86254 -70.99631 37069 ft 577 kts 129°
2026-04-22 22:51 22.81667 -70.92532 37059 ft 577 kts 129°
2026-04-22 22:51 22.77088 -70.85452 37062 ft 576 kts 129°
2026-04-22 22:52 22.72479 -70.78334 37066 ft 575 kts 129°
2026-04-22 22:52 22.67894 -70.71267 37068 ft 574 kts 129°
2026-04-22 22:53 22.63307 -70.64204 37068 ft 574 kts 129°
2026-04-22 22:53 22.58713 -70.57141 37069 ft 574 kts 129°
2026-04-22 22:54 22.54143 -70.50121 37069 ft 573 kts 129°
2026-04-22 22:54 22.49556 -70.43087 37071 ft 572 kts 129°
2026-04-22 22:55 22.44968 -70.36060 37072 ft 572 kts 129°
2026-04-22 22:55 22.38088 -70.25541 37049 ft 570 kts 129°
2026-04-22 22:56 22.33511 -70.18555 37051 ft 573 kts 129°
2026-04-22 22:56 22.28893 -70.11515 37052 ft 571 kts 130°
2026-04-22 22:57 22.24322 -70.04555 37053 ft 570 kts 130°
2026-04-22 22:57 22.19723 -69.97564 37053 ft 571 kts 130°
2026-04-22 22:58 22.15169 -69.90647 37054 ft 571 kts 130°
2026-04-22 22:58 22.10567 -69.83669 37052 ft 570 kts 129°
2026-04-22 22:59 22.05965 -69.76698 37050 ft 569 kts 130°
2026-04-22 22:59 22.01363 -69.69737 37051 ft 569 kts 130°
2026-04-22 23:00 21.96795 -69.62836 37049 ft 567 kts 130°
2026-04-22 23:00 21.92185 -69.55881 37053 ft 568 kts 130°
2026-04-22 23:01 21.87610 -69.48988 37047 ft 569 kts 130°
2026-04-22 23:01 21.83034 -69.42100 37053 ft 568 kts 130°
2026-04-22 23:02 21.78422 -69.35170 37051 ft 568 kts 130°
2026-04-22 23:02 21.73843 -69.28295 37034 ft 567 kts 130°
2026-04-22 23:03 21.69242 -69.21397 37042 ft 568 kts 130°
2026-04-22 23:03 21.64628 -69.14489 37040 ft 568 kts 130°
2026-04-22 23:04 21.60027 -69.07607 37036 ft 566 kts 131°
2026-04-22 23:04 21.55441 -69.00760 37041 ft 569 kts 130°
2026-04-22 23:05 21.50823 -68.93868 37038 ft 567 kts 131°
2026-04-22 23:05 21.46194 -68.86972 37041 ft 568 kts 131°
2026-04-22 23:06 21.41581 -68.80108 37039 ft 568 kts 131°
2026-04-22 23:06 21.36978 -68.73267 37040 ft 566 kts 131°
2026-04-22 23:07 21.32368 -68.66425 37036 ft 567 kts 131°
2026-04-22 23:07 21.27726 -68.59544 37037 ft 569 kts 131°
2026-04-22 23:08 21.23118 -68.52719 37023 ft 568 kts 131°
2026-04-22 23:08 21.18479 -68.45858 37021 ft 567 kts 131°
2026-04-22 23:09 21.13837 -68.39003 37024 ft 568 kts 131°
2026-04-22 23:09 21.09202 -68.32166 37000 ft 568 kts 132°
2026-04-22 23:10 21.04589 -68.25367 37006 ft 567 kts 132°
2026-04-22 23:10 20.99932 -68.18514 37010 ft 567 kts 131°
2026-04-22 23:11 20.95304 -68.11709 36999 ft 565 kts 131°
2026-04-22 23:11 20.90708 -68.04961 37009 ft 565 kts 131°
2026-04-22 23:12 20.86060 -67.98145 37007 ft 566 kts 131°
2026-04-22 23:12 20.81285 -67.91511 37008 ft 562 kts 134°
2026-04-22 23:13 20.76490 -67.84953 37007 ft 562 kts 134°
2026-04-22 23:13 20.71701 -67.78396 37009 ft 558 kts 134°
2026-04-22 23:14 20.66917 -67.71848 37011 ft 561 kts 134°
2026-04-22 23:14 20.62345 -67.65086 37017 ft 567 kts 126°
2026-04-22 23:15 20.58370 -67.57806 37015 ft 565 kts 125°
2026-04-22 23:15 20.54441 -67.50572 37018 ft 566 kts 125°
2026-04-22 23:16 20.50492 -67.43308 37019 ft 565 kts 125°
2026-04-22 23:16 20.46555 -67.36076 37023 ft 566 kts 125°
2026-04-22 23:17 20.42608 -67.28835 37000 ft 563 kts 125°
2026-04-22 23:17 20.38673 -67.21622 37000 ft 562 kts 125°
2026-04-22 23:18 20.34734 -67.14415 37005 ft 562 kts 125°
2026-04-22 23:18 20.30820 -67.07260 37011 ft 562 kts 125°
2026-04-22 23:19 20.26874 -67.00057 37016 ft 564 kts 125°
2026-04-22 23:19 20.22937 -66.92879 37013 ft 561 kts 125°
2026-04-22 23:20 20.18999 -66.85709 37013 ft 561 kts 125°
2026-04-22 23:20 20.15078 -66.78577 37013 ft 560 kts 125°
2026-04-22 23:21 20.11153 -66.71448 37015 ft 560 kts 125°
2026-04-22 23:21 20.07216 -66.64306 37014 ft 559 kts 125°
2026-04-22 23:22 20.03277 -66.57169 37021 ft 560 kts 125°
2026-04-22 23:22 19.99351 -66.50062 37020 ft 559 kts 125°
2026-04-22 23:23 19.95411 -66.42941 37017 ft 558 kts 125°
2026-04-22 23:23 19.91479 -66.35842 37017 ft 557 kts 125°
2026-04-22 23:24 19.87534 -66.28727 36999 ft 556 kts 125°
2026-04-22 23:24 19.83600 -66.21642 37001 ft 556 kts 125°
2026-04-22 23:25 19.79667 -66.14566 37006 ft 556 kts 125°
2026-04-22 23:25 19.75758 -66.07543 37001 ft 556 kts 125°
2026-04-22 23:26 19.71802 -66.00443 37001 ft 556 kts 125°
2026-04-22 23:26 19.67876 -65.93407 36997 ft 558 kts 125°
2026-04-22 23:27 19.63923 -65.86330 36990 ft 559 kts 125°
2026-04-22 23:27 19.59973 -65.79268 36999 ft 558 kts 125°
2026-04-22 23:28 19.56009 -65.72186 37003 ft 558 kts 125°
2026-04-22 23:28 19.52060 -65.65141 37004 ft 557 kts 125°
2026-04-22 23:29 19.48091 -65.58067 37005 ft 556 kts 125°
2026-04-22 23:29 19.44128 -65.51015 37004 ft 556 kts 125°
2026-04-22 23:30 19.40161 -65.43961 37005 ft 556 kts 125°
2026-04-22 23:30 19.36211 -65.36949 37010 ft 557 kts 125°
2026-04-22 23:31 19.32220 -65.29869 37000 ft 557 kts 125°
2026-04-22 23:31 19.28244 -65.22826 37001 ft 557 kts 125°
2026-04-22 23:32 19.24293 -65.15834 37002 ft 556 kts 126°
2026-04-22 23:32 19.20329 -65.08826 37003 ft 554 kts 125°
2026-04-22 23:33 19.16361 -65.01821 37004 ft 556 kts 126°
2026-04-22 23:33 19.12394 -64.94825 37003 ft 555 kts 126°
2026-04-22 23:34 19.08482 -64.87927 36162 ft 546 kts 126°
2026-04-22 23:34 19.06520 -64.84476 35094 ft 549 kts 126°
2026-04-22 23:34 19.04553 -64.81016 34215 ft 548 kts 125°
2026-04-22 23:35 19.02594 -64.77571 33351 ft 548 kts 125°
2026-04-22 23:35 19.00633 -64.74126 32526 ft 547 kts 125°
2026-04-22 23:35 18.98700 -64.70733 31707 ft 547 kts 125°
2026-04-22 23:35 18.96740 -64.67293 30827 ft 549 kts 124°
2026-04-22 23:36 18.94780 -64.63854 30248 ft 543 kts 124°
2026-04-22 23:36 18.92845 -64.60459 29758 ft 536 kts 124°
2026-04-22 23:36 18.90944 -64.57127 29225 ft 530 kts 124°
2026-04-22 23:36 18.89029 -64.53772 28654 ft 525 kts 124°
2026-04-22 23:37 18.87162 -64.50502 28089 ft 521 kts 123°
2026-04-22 23:37 18.85309 -64.47258 27528 ft 517 kts 123°
2026-04-22 23:37 18.83466 -64.44035 26955 ft 512 kts 123°
2026-04-22 23:37 18.81634 -64.40832 26387 ft 508 kts 123°
2026-04-22 23:38 18.79814 -64.37652 25810 ft 504 kts 123°
2026-04-22 23:38 18.78021 -64.34521 25234 ft 500 kts 124°
2026-04-22 23:38 18.76221 -64.31378 24639 ft 496 kts 123°
2026-04-22 23:38 18.74441 -64.28273 24049 ft 492 kts 124°
2026-04-22 23:39 18.72696 -64.25231 23482 ft 487 kts 123°
2026-04-22 23:39 18.70957 -64.22200 22906 ft 483 kts 123°
2026-04-22 23:39 18.69213 -64.19161 22328 ft 479 kts 123°
2026-04-22 23:39 18.67502 -64.16183 21757 ft 476 kts 123°
2026-04-22 23:40 18.65800 -64.13222 21170 ft 473 kts 123°
2026-04-22 23:40 18.64095 -64.10256 20577 ft 469 kts 123°
2026-04-22 23:40 18.62413 -64.07333 19977 ft 465 kts 122°
2026-04-22 23:40 18.60745 -64.04434 19387 ft 461 kts 122°
2026-04-22 23:41 18.59101 -64.01580 18794 ft 457 kts 122°
2026-04-22 23:41 18.57456 -63.98724 18193 ft 453 kts 122°
2026-04-22 23:41 18.55840 -63.95920 17603 ft 449 kts 121°
2026-04-22 23:41 18.54220 -63.93110 16992 ft 445 kts 122°
2026-04-22 23:42 18.52628 -63.90350 16391 ft 440 kts 121°
2026-04-22 23:42 18.51077 -63.87662 15715 ft 425 kts 121°
2026-04-22 23:42 18.49562 -63.85037 15187 ft 406 kts 121°
2026-04-22 23:42 18.48143 -63.82580 14662 ft 390 kts 121°
2026-04-22 23:43 18.46762 -63.80190 14165 ft 379 kts 121°
2026-04-22 23:43 18.45341 -63.77731 13629 ft 395 kts 121°
2026-04-22 23:43 18.43930 -63.75288 13017 ft 394 kts 121°
2026-04-22 23:43 18.42494 -63.72805 12434 ft 392 kts 120°
2026-04-22 23:44 18.41092 -63.70382 11873 ft 389 kts 120°
2026-04-22 23:44 18.39680 -63.67970 11315 ft 386 kts 123°
2026-04-22 23:44 18.37986 -63.65816 11029 ft 375 kts 134°
2026-04-22 23:44 18.36154 -63.63945 11001 ft 357 kts 135°
2026-04-22 23:45 18.34401 -63.62183 10999 ft 340 kts 135°
2026-04-22 23:45 18.32722 -63.60502 10967 ft 325 kts 135°
2026-04-22 23:45 18.31129 -63.58911 10906 ft 310 kts 135°
2026-04-22 23:45 18.29606 -63.57396 10795 ft 295 kts 135°
2026-04-22 23:46 18.28133 -63.55933 10505 ft 289 kts 135°
2026-04-22 23:46 18.26989 -63.54797 10167 ft 288 kts 135°
2026-04-22 23:46 18.25807 -63.53624 9832 ft 287 kts 135°
2026-04-22 23:46 18.24374 -63.52202 9539 ft 284 kts 135°
2026-04-22 23:47 18.22942 -63.50783 9132 ft 282 kts 134°
2026-04-22 23:47 18.21521 -63.49374 8636 ft 280 kts 134°
2026-04-22 23:47 18.20100 -63.47966 8121 ft 278 kts 134°
2026-04-22 23:47 18.18704 -63.46584 7637 ft 276 kts 134°
2026-04-22 23:48 18.17306 -63.45198 7158 ft 273 kts 134°
2026-04-22 23:48 18.15945 -63.43850 6654 ft 271 kts 134°
2026-04-22 23:48 18.14564 -63.42483 6184 ft 269 kts 134°
2026-04-22 23:48 18.13205 -63.41137 5729 ft 266 kts 134°
2026-04-22 23:49 18.11868 -63.39814 5321 ft 269 kts 134°
2026-04-22 23:49 18.10498 -63.38458 4940 ft 271 kts 134°
2026-04-22 23:49 18.09129 -63.37104 4630 ft 270 kts 134°
2026-04-22 23:49 18.07754 -63.35745 4333 ft 269 kts 134°
2026-04-22 23:50 18.06407 -63.34413 4043 ft 268 kts 134°
2026-04-22 23:50 18.05046 -63.33067 3748 ft 267 kts 134°
2026-04-22 23:50 18.03688 -63.31725 3400 ft 263 kts 134°
2026-04-22 23:50 18.02457 -63.30392 3129 ft 251 kts 120°
2026-04-22 23:51 18.01859 -63.28752 2855 ft 233 kts 94°
2026-04-22 23:51 18.01864 -63.27120 2626 ft 220 kts 84°
2026-04-22 23:51 18.02011 -63.25558 2422 ft 210 kts 81°
2026-04-22 23:51 18.02199 -63.24113 2200 ft 189 kts 79°
2026-04-22 23:52 18.02386 -63.22802 1998 ft 173 kts 79°
2026-04-22 23:52 18.02561 -63.21589 1792 ft 165 kts 78°
2026-04-22 23:52 18.02729 -63.20426 1586 ft 159 kts 78°
2026-04-22 23:52 18.02891 -63.19292 1382 ft 156 kts 78°
2026-04-22 23:53 18.03052 -63.18171 1169 ft 155 kts 78°
2026-04-22 23:53 18.03213 -63.17045 955 ft 156 kts 79°
2026-04-22 23:53 18.03375 -63.15914 769 ft 154 kts 79°
2026-04-22 23:53 18.03528 -63.14829 640 ft 147 kts 79°
2026-04-22 23:54 18.03663 -63.13766 386 ft 145 kts 78°
2026-04-22 23:54 18.03826 -63.12731 194 ft 140 kts 79°
2026-04-22 23:54 18.03972 -63.11735 42 ft 136 kts 79°
2026-04-22 23:54 18.04094 -63.10891 22 ft 91 kts 81°
2026-04-22 23:55 18.04154 -63.10474 25 ft 28 kts 81°
2026-04-22 23:55 18.04185 -63.10274 23 ft 27 kts 81°
2026-04-22 23:55 18.04212 -63.10077 21 ft 26 kts 82°
2026-04-22 23:55 18.04259 -63.09929 19 ft 20 kts 56°
2026-04-22 23:56 18.04256 -63.09887 18 ft 5 kts 211°
2026-04-22 23:56 18.04233 -63.09932 19 ft 10 kts 251°
2026-04-22 23:56 18.04215 -63.10030 21 ft 17 kts 262°
2026-04-22 23:56 18.04200 -63.10181 22 ft 24 kts 263°
2026-04-22 23:57 18.04174 -63.10349 24 ft 22 kts 261°
2026-04-22 23:57 18.04150 -63.10503 24 ft 21 kts 261°
2026-04-22 23:57 18.04127 -63.10662 22 ft 23 kts 262°
2026-04-22 23:57 18.04103 -63.10841 22 ft 26 kts 262°
2026-04-22 23:58 18.04077 -63.11011 23 ft 22 kts 259°
2026-04-22 23:58 18.04054 -63.11163 25 ft 15 kts 261°
2026-04-22 23:58 18.04058 -63.11258 25 ft 7 kts 306°
2026-04-22 23:58 18.04104 -63.11288 25 ft 8 kts 340°
2026-04-22 23:59 18.04154 -63.11298 25 ft 7 kts 348°
2026-04-22 23:59 18.04202 -63.11310 25 ft 5 kts 339°
2026-04-22 23:59 18.04230 -63.11334 26 ft 4 kts 316°
2026-04-22 23:59 18.04254 -63.11347 27 ft 3 kts 345°
2026-04-23 00:00 18.04280 -63.11353 27 ft 0 kts 348°
2026-04-23 00:00 18.04282 -63.11354 27 ft 0 kts 348°
2026-04-23 00:00 18.04305 -63.11357 28 ft 3 kts 352°
2026-04-23 00:01 18.04316 -63.11359 28 ft 0 kts 352°